Weather History for Houston Clover, TX

Change the Weather History Date:

Monday, January 13, 2014

  Actual Average (KHOU) Record (KHOU)
Temperature  
Mean Temperature 59 °F 53 °F  
Max Temperature 72 °F 63 °F 81 °F (2000)
Min Temperature 44 °F 43 °F 17 °F (1912)
Degree Days  
Heating Degree Days 6 13  
Month to date heating degree days 169  
Since 1 July heating degree days 708  
Growing Degree Days 9 (Base 50)    
Moisture  
Dew Point 52 °F    
Average Humidity 69    
Maximum Humidity 93    
Minimum Humidity 18    
Precipitation  
Precipitation 0.10 in 0.10 in 1.51 in (2005)
Month to date precipitation 1.36  
Year to date precipitation 1.36  
Sea Level Pressure  
Sea Level Pressure 29.95 in    
Wind  
Wind Speed 7 mph (WSW)    
Max Wind Speed 21 mph    
Max Gust Speed 30 mph    
Visibility 8 miles    
Events Rain , Thunderstorm    
T = Trace of Precipitation, MM = Missing Value Source: NWS Daily Summary

Daily Weather History Graph

Daily Weather History Graph

Search for Another Location

Airport:

Trip Planner

Search our weather history database for the weather conditions in past years. The results will help you decide how hot, cold, wet, or windy it might be!

Date:

Astronomy

Jan. 13, 2014 Rise Set
Actual Time 7:16 AM CST 5:42 PM CST
Civil Twilight 6:51 AM CST 6:08 PM CST
Nautical Twilight 6:21 AM CST 6:37 PM CST
Astronomical Twilight 5:53 AM CST 7:06 PM CST
Moon 3:57 PM CST (1/13) 5:07 AM CST (1/13)
Length of Visible Light 11h 17m
Length of Day
10h 26m
Waxing Gibbous, 95% of the Moon is Illuminated
Jan 13
Waxing Gibbous
Jan 15
Full
Jan 23
Last Quarter
Jan 30
New
Feb 6
First Quarter

Hourly Weather History & Observations

Time (CST) Temp. Dew Point Humidity Pressure Visibility Wind Dir Wind Speed Gust Speed Precip Events Conditions
12:02 AM 66.0 °F 62.1 °F 87% 29.95 in 9.0 mi South 8.1 mph - N/A   Overcast
12:53 AM 64.9 °F 62.1 °F 90% 29.93 in 8.0 mi SSW 3.5 mph - N/A   Overcast
1:53 AM 64.9 °F 62.1 °F 90% 29.92 in 7.0 mi SSE 6.9 mph - 0.00 in Rain Light Rain
2:53 AM 66.9 °F 63.0 °F 87% 29.90 in 9.0 mi South 6.9 mph - 0.00 in   Overcast
3:01 AM 66.9 °F 63.0 °F 87% 29.88 in 8.0 mi South 5.8 mph - N/A   Overcast
3:15 AM 66.9 °F 64.0 °F 90% 29.89 in 5.0 mi South 3.5 mph - 0.04 in Rain , Thunderstorm Light Rain
3:25 AM 66.0 °F 63.0 °F 90% 29.89 in 2.5 mi SSW 4.6 mph - 0.10 in Rain , Thunderstorm Heavy Rain
3:37 AM 66.0 °F 63.0 °F 90% 29.87 in 6.0 mi SSE 5.8 mph - 0.10 in Rain , Thunderstorm Light Rain
3:46 AM 66.0 °F 63.0 °F 90% 29.86 in 6.0 mi SSE 8.1 mph - 0.10 in   Scattered Clouds
3:53 AM 66.0 °F 62.1 °F 87% 29.84 in 5.0 mi SE 9.2 mph - 0.10 in   Partly Cloudy
4:10 AM 64.9 °F 63.0 °F 93% 29.86 in 6.0 mi SSE 5.8 mph - N/A   Scattered Clouds
4:18 AM 64.9 °F 63.0 °F 93% 29.86 in 6.0 mi Calm Calm - N/A   Mostly Cloudy
4:29 AM 64.9 °F 63.0 °F 93% 29.87 in 6.0 mi Calm Calm - N/A   Overcast
4:42 AM 64.9 °F 63.0 °F 93% 29.88 in 5.0 mi Calm Calm - N/A   Overcast
4:53 AM 66.0 °F 63.0 °F 90% 29.89 in 6.0 mi SSW 3.5 mph - N/A   Overcast
5:53 AM 66.9 °F 63.0 °F 87% 29.89 in 5.0 mi WSW 5.8 mph - N/A   Overcast
6:26 AM 66.0 °F 63.0 °F 90% 29.90 in 5.0 mi West 4.6 mph - N/A   Overcast
6:53 AM 66.9 °F 64.0 °F 90% 29.90 in 5.0 mi WSW 4.6 mph - N/A   Overcast
7:26 AM 68.0 °F 64.0 °F 87% 29.91 in 7.0 mi WSW 6.9 mph - N/A   Overcast
7:40 AM 68.0 °F 64.0 °F 87% 29.91 in 6.0 mi SW 3.5 mph - N/A   Overcast
7:53 AM 68.0 °F 64.0 °F 87% 29.91 in 5.0 mi WSW 4.6 mph - N/A   Overcast
8:43 AM 68.0 °F 64.0 °F 87% 29.92 in 7.0 mi WSW 9.2 mph - N/A   Partly Cloudy
8:53 AM 69.1 °F 64.0 °F 84% 29.92 in 7.0 mi West 9.2 mph - N/A   Partly Cloudy
9:37 AM 69.1 °F 63.0 °F 81% 29.94 in 9.0 mi West 9.2 mph - N/A   Mostly Cloudy
9:53 AM 70.0 °F 62.1 °F 76% 29.94 in 10.0 mi West 15.0 mph 21.9 mph N/A   Mostly Cloudy
10:53 AM 71.1 °F 57.9 °F 63% 29.95 in 10.0 mi NW 13.8 mph 19.6 mph N/A   Scattered Clouds
11:53 AM 71.1 °F 50.0 °F 47% 29.95 in 10.0 mi NW 15.0 mph 21.9 mph N/A   Clear
12:53 PM 72.0 °F 42.1 °F 34% 29.96 in 10.0 mi NNW 19.6 mph 27.6 mph N/A   Clear
1:53 PM 72.0 °F 36.0 °F 27% 29.96 in 10.0 mi NNW 20.7 mph 29.9 mph N/A   Clear
2:53 PM 72.0 °F 32.0 °F 23% 29.98 in 10.0 mi NW 13.8 mph 25.3 mph N/A   Clear
3:53 PM 71.1 °F 27.0 °F 19% 30.01 in 10.0 mi NNW 19.6 mph 27.6 mph N/A   Clear
4:53 PM 69.1 °F 24.1 °F 18% 30.03 in 10.0 mi NNW 15.0 mph 28.8 mph N/A   Clear
5:53 PM 66.0 °F 21.0 °F 18% 30.04 in 10.0 mi NNW 11.5 mph - N/A   Clear
6:53 PM 63.0 °F 21.9 °F 21% 30.08 in 10.0 mi NW 5.8 mph - N/A   Clear
7:53 PM 60.1 °F 21.9 °F 23% 30.10 in 10.0 mi WNW 4.6 mph - N/A   Clear
8:53 PM 54.0 °F 26.1 °F 34% 30.13 in 10.0 mi WNW 3.5 mph - N/A   Clear
9:53 PM 46.9 °F 30.9 °F 54% 30.14 in 10.0 mi West 3.5 mph - N/A   Clear
10:53 PM 46.9 °F 30.0 °F 52% 30.16 in 10.0 mi WNW 4.6 mph - N/A   Clear
11:53 PM 44.1 °F 32.0 °F 63% 30.15 in 10.0 mi Calm Calm - N/A   Clear